Showing default

KAZEOSAT 2, 40010

Orbit data source: Space-Track

KAZEOSAT 2, 40010 is a payload satellite owned by Kazkosmos (KZ) in SSO that was launched on Thu, 19 Jun 2014 UTC via a DNEPR launch vehicle from the Orenburg, Russia (OREN). Payload-class satellites include a variety of spacecraft equipped with specific instruments for various scientific and technological missions. These include communications satellites like Starlink; space stations such as the ISS; scientific satellites like the Hubble; Earth observation satellites from companies like Planet Labs, Umbra, and HawkEye 360; GPS; miniature CubeSats for education and research; and military/defense satellites.

Loading next visibility...
Identifier
40010, 2014-033A
Orbit
SSO
Country
Flag of KZKZ / KAZ
Related business
Manufacturer
SSTL (Astrium)
Mission
Operational Civil Imaging
Bus & Motor
SSTL-150, AOCS
Mass
177 kg wet, 177 kg dry
Launch date (UTC)
2014-06-19 (11 years ago)
Launch vehicle
DNEPR
Launch site
Orenburg, Russia (OREN)
Object type
Payload
Rocket body
Debris
Shape & HBR
Box, 1.5 m
Radar Cross Section
1.500 m², Medium (>0.1 m² and < 1m²)

Expand to show TLE details & history
Last TLE update: 7 hours ago

TLE from 7 hours ago
0 KAZEOSAT 2
1 40010U 14033A   25260.31283528  .00000599  00000-0  76170-4 0  9991
2 40010  97.5630 109.0492 0009712 133.1181 227.0849 14.84955467608457
Epoch: 2025-09-17T07:30Z
TLE epoch observation values (Epoch: 2025-09-17T07:30:28.968Z)
Latitude
0.00004°
Longitude
-0.06209°
Altitude
621.392 km
Speed
7.546 km/s
True Right ascension
07h 16m 11s
True Declination
0° 00' 00"
Sunlit
Object was in daylight at epoch
Visualization orbit readout
Latitude
Unknown
Longitude
Unknown
Altitude
Unknown
Speed
Unknown
Apparent Right ascension
Unknown
Apparent Declination
Unknown
Sunlit
N/A
Visualization observer readout
Local Sidereal Time
07:01:47
Azimuth
Unknown
Elevation
Unknown
Doppler factor
Unknown
Orbital elements
Apogee altitude
617.533 km
Perigee altitude
603.957 km
Semi-major axis
6,988.882 km
Eccentricity
0.00097
Inclination
97.563°
RAAN
109.0492°
Arg. of periapsis
133.1181°
True anomaly
227.00346°
Mean anomaly
227.0849°
Eccentric anomaly
227.04417°
Mean motion
3.71477 °/min
Orbital period
96.91 mins
BSTAR
0.00007617
Loading maneuver chart data...
Computing Atmospheric mass density...
Loading historical data...
Loading historical data...
Loading historical data...
Loading historical data...
Loading historical data...
Loading historical data...
Loading historical data...

Documentation

Showing up to 5 results
|